Weather History for CYQR - November, 2012

Change the Weather History Date:

Friday, November 23, 2012

  Actual Average Record
Temperature  
Mean Temperature 2 °F -  
Max Temperature 14 °F - - ()
Min Temperature -11 °F - - ()
Degree Days  
Heating Degree Days 64    
Moisture  
Dew Point -4 °F    
Average Humidity 83    
Maximum Humidity 93    
Minimum Humidity 60    
Precipitation  
Precipitation 0.00 in - - ()
Sea Level Pressure  
Sea Level Pressure 30.50 in    
Wind  
Wind Speed 8 mph ()    
Max Wind Speed 23 mph    
Max Gust Speed 30 mph    
Visibility 8.0 miles    
Events Fog , Snow    
T = Trace of Precipitation, MM = Missing Value Source: Averaged Metar Reports

Daily Weather History Graph

Daily Weather History Graph

Search for Another Location

Airport or City:

Trip Planner

Search our weather history database for the weather conditions in past years. The results will help you decide how hot, cold, wet, or windy it might be!

Date:

Astronomy

Nov. 23, 2012 Rise Set
Actual Time 8:26 AM CST 5:03 PM CST
Civil Twilight 7:49 AM CST 5:40 PM CST
Nautical Twilight 7:09 AM CST 6:21 PM CST
Astronomical Twilight 6:30 AM CST 6:59 PM CST
Moon 2:41 PM CST (11/23) 3:23 AM CST (11/23)
Length of Visible Light 9h 50m
Length of Day
8h 36m
Waxing Gibbous, 80% of the Moon is Illuminated
Nov 23
Waxing Gibbous
Nov 28
Full
Dec 6
Last Quarter
Dec 13
New
Dec 19
First Quarter

Hourly Weather History & Observations

Time (CST) Temp. Windchill Dew Point Humidity Pressure Visibility Wind Dir Wind Speed Gust Speed Precip Events Conditions
12:00 AM 2 °F - -0 °F 85% 30.64 in 9 mi WNW 11.5 mph - -  
12:00 AM 3.2 °F -11.3 °F -0.4 °F 85% 30.64 in 15.0 mi NW 9.2 mph - N/A   Overcast
1:00 AM -0.4 °F -17.6 °F -2.2 °F 92% 30.65 in 15.0 mi NW 11.5 mph - N/A   Scattered Clouds
2:00 AM -5.8 °F -21.2 °F -7.6 °F 92% 30.64 in 15.0 mi NW 8.1 mph - N/A   Overcast
3:00 AM -7.6 °F - -9.4 °F 92% 30.67 in 15.0 mi Calm Calm - N/A   Overcast
4:00 AM -7.6 °F -16.5 °F -9.4 °F 92% 30.66 in 15.0 mi West 3.5 mph - N/A   Mostly Cloudy
4:47 AM -9.4 °F - - N/A% - 15.0 mi NW 2.3 mph - N/A   Mostly Cloudy
5:00 AM -9.4 °F -18.6 °F -11.2 °F 92% 30.64 in 15.0 mi WNW 3.5 mph - N/A   Mostly Cloudy
5:26 AM -7.6 °F -18.8 °F - N/A% - 2.5 mi WNW 4.6 mph - N/A   Mostly Cloudy
5:35 AM -11.2 °F -29.0 °F - N/A% - 1.0 mi WNW 9.2 mph - N/A   Mostly Cloudy
5:37 AM -9.4 °F -25.6 °F - N/A% - 0.5 mi WNW 8.1 mph - N/A Fog Light Freezing Fog
5:51 AM -9.4 °F -24.3 °F - N/A% - 0.4 mi West 6.9 mph - N/A Fog Light Freezing Fog
6:00 AM -11 °F - -18 °F 60% 30.65 in 0 mi West 6.9 mph - -  
7:00 AM -11.2 °F - -16.6 °F 77% 30.64 in 0.4 mi Calm Calm - N/A Fog Light Freezing Fog
8:00 AM -9.4 °F - -14.8 °F 77% 30.63 in 0.4 mi Calm Calm - N/A Fog Light Freezing Fog
8:34 AM -9.4 °F - - N/A% - 0.4 mi Calm Calm - N/A Fog Light Freezing Fog
8:44 AM -7.6 °F - - N/A% - 2.5 mi Calm Calm - N/A   Overcast
9:00 AM -7.6 °F - -14.8 °F 71% 30.63 in 5.0 mi Calm Calm - N/A   Overcast
10:00 AM -5.8 °F -16.7 °F -13.0 °F 71% 30.62 in 6.0 mi SE 4.6 mph - N/A   Overcast
12:00 PM -6 °F - -12 °F 64% 30.58 in 6 mi ESE 6.9 mph - -  
12:00 PM -5.8 °F -19.9 °F -13.0 °F 71% 30.58 in 12.0 mi ESE 6.9 mph - N/A   Mostly Cloudy
1:00 PM -2.2 °F -15.6 °F -7.6 °F 78% 30.56 in 12.0 mi SE 6.9 mph - N/A   Mostly Cloudy
2:00 PM -2.2 °F -18.0 °F -7.6 °F 78% 30.51 in 12.0 mi ESE 9.2 mph - N/A   Overcast
3:00 PM 1.4 °F -15.3 °F -4.0 °F 78% 30.48 in 12.0 mi SE 11.5 mph - N/A   Overcast
3:48 PM 3.2 °F -13.9 °F - N/A% - 2.5 mi SE 12.7 mph - N/A   Overcast
4:00 PM 3.2 °F -13.9 °F -0.4 °F 85% 30.43 in 2.0 mi ESE 12.7 mph - N/A Snow Low Drifting Snow
4:20 PM 5.0 °F -11.6 °F - N/A% - 3.0 mi SE 12.7 mph - N/A Snow Low Drifting Snow
5:00 PM 6.8 °F -10.7 °F 3.2 °F 85% 30.41 in 6.0 mi SE 15.0 mph - N/A Snow Low Drifting Snow
6:00 PM 8 °F - 5 °F 80% 30.36 in 6 mi SE 17.3 mph - -  
6:00 PM 6.8 °F -11.8 °F 5.0 °F 92% 30.37 in 12.0 mi SE 17.3 mph - N/A Snow Low Drifting Snow
7:00 PM 10.4 °F -8.6 °F 6.8 °F 85% 30.32 in 12.0 mi SE 20.7 mph - N/A Snow Low Drifting Snow
8:00 PM 10.4 °F -9.1 °F 8.6 °F 92% 30.27 in 12.0 mi SE 21.9 mph - N/A Snow Low Drifting Snow
8:08 PM 12.2 °F -7.1 °F - N/A% - 12.0 mi SE 23.0 mph - N/A Snow Low Drifting Snow
9:00 PM 12.2 °F -5.8 °F 10.4 °F 92% 30.21 in 12.0 mi SSE 19.6 mph 28.8 mph N/A Snow Low Drifting Snow
10:00 PM 14.0 °F -4.7 °F 10.4 °F 86% 30.15 in 10.0 mi SSE 23.0 mph 29.9 mph N/A Snow Low Drifting Snow
11:00 PM 14.0 °F -4.3 °F 12.2 °F 93% 30.13 in 10.0 mi SE 21.9 mph - N/A Snow Low Drifting Snow